Chehalis, WA

11:34 PM PDT on August 19, 2017 (GMT -0700)
Chehalis-Centralia

Weather History for KCLS - February, 2013

Change the Weather History Date:

Sunday, February 24, 2013

  Actual Average (KTDO) Record (KTDO)
Temperature  
Mean Temperature 42 °F -  
Max Temperature 48 °F 54 °F 66 °F (1970)
Min Temperature 37 °F 34 °F 18 °F (1993)
Degree Days  
Heating Degree Days 22    
Moisture  
Dew Point 36 °F    
Average Humidity 76    
Maximum Humidity 93    
Minimum Humidity 62    
Precipitation  
Precipitation 0.00 in - - ()
Sea Level Pressure  
Sea Level Pressure 30.28 in    
Wind  
Wind Speed 8 mph (South)    
Max Wind Speed 18 mph    
Max Gust Speed 24 mph    
Visibility 9 miles    
Events Rain    
Averages and records for this station are not official NWS values.
T = Trace of Precipitation, MM = Missing Value Source: NWS Daily Summary

Daily Weather History Graph

Daily Weather History Graph

Search for Another Location

Airport or City:

Trip Planner

Search our weather history database for the weather conditions in past years. The results will help you decide how hot, cold, wet, or windy it might be!

Date:

Astronomy

Feb. 24, 2013 Rise Set
Actual Time 6:59 AM PST 5:50 PM PST
Civil Twilight 6:29 AM PST 6:21 PM PST
Nautical Twilight 5:54 AM PST 6:56 PM PST
Astronomical Twilight 5:19 AM PST 7:31 PM PST
Moon 5:08 PM PST (2/24) 6:01 AM PST (2/24)
Length of Visible Light 11h 52m
Length of Day
10h 51m
Waxing Gibbous, 99% of the Moon is Illuminated
Feb 24
Waxing Gibbous
Feb 25
Full
Mar 4
Last Quarter
Mar 11
New
Mar 19
First Quarter

Hourly Weather History & Observations

Time (PST) Temp. Windchill Dew Point Humidity Pressure Visibility Wind Dir Wind Speed Gust Speed Precip Events Conditions
12:15 AM 37.4 °F 33.8 °F 35.6 °F 93% 30.43 in 10.0 mi SSW 4.6 mph - N/A   Overcast
12:35 AM 37.4 °F 33.8 °F 35.6 °F 93% 30.43 in 10.0 mi South 4.6 mph - N/A   Overcast
12:55 AM 39.2 °F 35.9 °F 35.6 °F 87% 30.43 in 10.0 mi South 4.6 mph - N/A   Overcast
1:15 AM 39.2 °F 35.0 °F 35.6 °F 87% 30.42 in 10.0 mi South 5.8 mph - N/A   Overcast
1:35 AM 39.2 °F 35.9 °F 35.6 °F 87% 30.43 in 10.0 mi South 4.6 mph - N/A   Overcast
1:55 AM 39.2 °F 37.0 °F 35.6 °F 87% 30.43 in 10.0 mi South 3.5 mph - N/A   Overcast
2:15 AM 39.2 °F 35.0 °F 35.6 °F 87% 30.42 in 10.0 mi South 5.8 mph - N/A   Overcast
2:35 AM 39.2 °F 34.2 °F 35.6 °F 87% 30.42 in 10.0 mi South 6.9 mph - N/A   Overcast
2:55 AM 39.2 °F 35.0 °F 35.6 °F 87% 30.42 in 10.0 mi South 5.8 mph - N/A   Overcast
3:15 AM 39.2 °F 35.9 °F 35.6 °F 87% 30.42 in 10.0 mi SSW 4.6 mph - N/A   Overcast
3:35 AM 39.2 °F 35.0 °F 35.6 °F 87% 30.41 in 10.0 mi South 5.8 mph - N/A   Overcast
3:55 AM 39.2 °F 34.2 °F 35.6 °F 87% 30.41 in 10.0 mi South 6.9 mph - N/A   Overcast
4:15 AM 39.2 °F 33.6 °F 35.6 °F 87% 30.41 in 10.0 mi South 8.1 mph - N/A   Overcast
4:35 AM 39.2 °F 33.6 °F 35.6 °F 87% 30.41 in 10.0 mi South 8.1 mph - N/A   Overcast
4:55 AM 39.2 °F 34.2 °F 35.6 °F 87% 30.41 in 10.0 mi South 6.9 mph - N/A   Overcast
5:15 AM 39.2 °F 33.6 °F 35.6 °F 87% 30.40 in 10.0 mi South 8.1 mph - N/A   Overcast
5:35 AM 39.2 °F 34.2 °F 35.6 °F 87% 30.40 in 10.0 mi South 6.9 mph - N/A   Overcast
5:55 AM 39.2 °F 34.2 °F 35.6 °F 87% 30.40 in 10.0 mi South 6.9 mph - N/A   Overcast
6:15 AM 39.2 °F 33.6 °F 35.6 °F 87% 30.39 in 10.0 mi South 8.1 mph - N/A   Overcast
6:35 AM 39.2 °F 35.0 °F 35.6 °F 87% 30.39 in 10.0 mi SSW 5.8 mph - N/A   Overcast
6:55 AM 39.2 °F 34.2 °F 35.6 °F 87% 30.39 in 10.0 mi South 6.9 mph - N/A   Overcast
7:15 AM 39.2 °F 33.6 °F 35.6 °F 87% 30.38 in 10.0 mi SSE 8.1 mph - N/A   Overcast
7:35 AM 39.2 °F 33.6 °F 35.6 °F 87% 30.38 in 10.0 mi South 8.1 mph - N/A   Overcast
7:55 AM 39.2 °F 33.6 °F 35.6 °F 87% 30.39 in 10.0 mi South 8.1 mph - N/A   Overcast
8:15 AM 39.2 °F 33.0 °F 35.6 °F 87% 30.38 in 9.0 mi South 9.2 mph - N/A   Overcast
8:35 AM 41.0 °F 35.8 °F 35.6 °F 81% 30.38 in 10.0 mi South 8.1 mph - N/A   Overcast
8:55 AM 41.0 °F 35.2 °F 35.6 °F 81% 30.38 in 10.0 mi South 9.2 mph - N/A   Overcast
9:15 AM 41.0 °F 34.3 °F 35.6 °F 81% 30.38 in 10.0 mi South 11.5 mph 16.1 mph N/A Rain Light Rain
9:35 AM 41.0 °F 34.7 °F 35.6 °F 81% 30.37 in 9.0 mi South 10.4 mph 16.1 mph N/A   Mostly Cloudy
9:55 AM 41.0 °F 34.7 °F 37.4 °F 87% 30.37 in 10.0 mi South 10.4 mph 19.6 mph N/A   Mostly Cloudy
10:15 AM 42.8 °F 36.6 °F 37.4 °F 81% 30.37 in 10.0 mi South 11.5 mph 16.1 mph N/A   Mostly Cloudy
10:35 AM 44.6 °F 38.4 °F 37.4 °F 76% 30.36 in 10.0 mi South 12.7 mph 21.9 mph N/A   Overcast
10:55 AM 44.6 °F 37.4 °F 37.4 °F 76% 30.35 in 9.0 mi South 16.1 mph 23.0 mph N/A   Overcast
11:15 AM 44.6 °F 37.4 °F 37.4 °F 76% 30.35 in 10.0 mi SSE 16.1 mph 23.0 mph N/A   Mostly Cloudy
11:35 AM 44.6 °F 37.4 °F 37.4 °F 76% 30.34 in 9.0 mi SSE 16.1 mph 21.9 mph N/A   Scattered Clouds
11:55 AM 46.4 °F 40.1 °F 37.4 °F 71% 30.34 in 8.0 mi South 15.0 mph 21.9 mph N/A   Scattered Clouds
12:15 PM 46.4 °F 39.2 °F 37.4 °F 71% 30.33 in 10.0 mi South 18.4 mph 24.2 mph N/A   Mostly Cloudy
12:35 PM 46.4 °F 39.5 °F 37.4 °F 71% 30.32 in 10.0 mi South 17.3 mph 20.7 mph N/A   Partly Cloudy
12:55 PM 46.4 °F 39.8 °F 37.4 °F 71% 30.31 in 10.0 mi SSE 16.1 mph 21.9 mph N/A   Partly Cloudy
1:15 PM 48.2 °F - 37.4 °F 66% 30.30 in 5.0 mi SSE 13.8 mph 20.7 mph N/A   Haze
1:35 PM 48.2 °F - 37.4 °F 66% 30.29 in 6.0 mi South 13.8 mph 20.7 mph N/A   Haze
1:55 PM 48.2 °F - 37.4 °F 66% 30.28 in 5.0 mi South 12.7 mph 20.7 mph N/A   Haze
2:15 PM 48.2 °F - 37.4 °F 66% 30.27 in 5.0 mi South 16.1 mph 19.6 mph N/A   Haze
2:35 PM 48.2 °F - 37.4 °F 66% 30.27 in 10.0 mi South 10.4 mph 18.4 mph N/A   Mostly Cloudy
2:55 PM 48.2 °F - 35.6 °F 62% 30.26 in 5.0 mi South 15.0 mph 20.7 mph N/A   Haze
3:15 PM 48.2 °F - 35.6 °F 62% 30.25 in 5.0 mi South 12.7 mph 17.3 mph N/A   Haze
3:35 PM 48.2 °F - 35.6 °F 62% 30.25 in 5.0 mi South 12.7 mph 19.6 mph N/A   Haze
3:55 PM 48.2 °F - 35.6 °F 62% 30.24 in 5.0 mi South 15.0 mph 21.9 mph N/A   Haze
4:15 PM 48.2 °F - 35.6 °F 62% 30.23 in 5.0 mi South 13.8 mph - N/A   Haze
4:35 PM 48.2 °F - 35.6 °F 62% 30.22 in 5.0 mi South 11.5 mph 18.4 mph N/A   Haze
4:55 PM 46.4 °F 41.1 °F 35.6 °F 66% 30.21 in 5.0 mi South 11.5 mph - N/A   Haze
5:15 PM 46.4 °F 41.9 °F 35.6 °F 66% 30.19 in 5.0 mi South 9.2 mph - N/A   Haze
5:35 PM 46.4 °F 42.9 °F 35.6 °F 66% 30.19 in 5.0 mi South 6.9 mph - N/A   Haze
5:55 PM 46.4 °F 43.5 °F 35.6 °F 66% 30.17 in 5.0 mi South 5.8 mph - N/A   Haze
6:15 PM 46.4 °F 42.4 °F 35.6 °F 66% 30.16 in 8.0 mi South 8.1 mph - N/A   Overcast
6:35 PM 46.4 °F 41.9 °F 35.6 °F 66% 30.16 in 10.0 mi South 9.2 mph - N/A   Overcast
6:55 PM 46.4 °F 41.9 °F 35.6 °F 66% 30.14 in 10.0 mi South 9.2 mph - N/A   Overcast
7:15 PM 44.6 °F 40.2 °F 35.6 °F 71% 30.14 in 10.0 mi South 8.1 mph - N/A   Overcast
7:35 PM 44.6 °F 40.2 °F 35.6 °F 71% 30.13 in 10.0 mi SSW 8.1 mph - N/A   Overcast
7:55 PM 44.6 °F 40.2 °F 35.6 °F 71% 30.12 in 7.0 mi SSW 8.1 mph - N/A   Overcast
8:15 PM 44.6 °F 41.4 °F 35.6 °F 71% 30.11 in 6.0 mi SSW 5.8 mph - N/A   Haze
8:35 PM 44.6 °F 40.7 °F 35.6 °F 71% 30.10 in 7.0 mi South 6.9 mph - N/A   Overcast
8:55 PM 44.6 °F 40.7 °F 33.8 °F 66% 30.09 in 9.0 mi SSW 6.9 mph - N/A   Overcast
9:15 PM 44.6 °F 38.4 °F 33.8 °F 66% 30.07 in 10.0 mi SSW 12.7 mph 18.4 mph N/A   Overcast
9:35 PM 44.6 °F 40.2 °F 33.8 °F 66% 30.07 in 9.0 mi South 8.1 mph - N/A   Overcast
9:55 PM 44.6 °F 39.2 °F 33.8 °F 66% 30.05 in 6.0 mi South 10.4 mph - N/A   Haze
10:15 PM 46.4 °F 41.9 °F 33.8 °F 62% 30.03 in 10.0 mi South 9.2 mph 17.3 mph N/A   Overcast
10:35 PM 46.4 °F 40.7 °F 33.8 °F 62% 30.03 in 10.0 mi South 12.7 mph 16.1 mph N/A   Overcast
11:15 PM 44.6 °F 39.7 °F 33.8 °F 66% 30.01 in 7.0 mi SSE 9.2 mph - N/A   Overcast
11:35 PM 46.4 °F 42.9 °F 35.6 °F 66% 30.00 in 7.0 mi South 6.9 mph - N/A   Overcast
11:55 PM 44.6 °F 39.2 °F 35.6 °F 71% 29.99 in 10.0 mi South 10.4 mph - N/A   Overcast